User: anonymous   Login
Location: Vanderbilt Beach
(26.2700°N, 81.7900°W)
Time: 00:09:31
(UTC-05:00)
Language:

MOZHAYETS 4 - Orbit

View from above orbital plane
View from above orbital plane
View from above satellite
View from above satellite

Ground track
Ground track

The orbit data is extracted from the following two-line orbital elements,

1 27939U 03042A   20330.84531718  .00000363  00000-0  73590-4 0  9994
2 27939  98.1132 103.7489 0012614 197.9396 162.1365 14.66911183917670
Epoch (UTC): 25 November 2020 20:17:15
Eccentricity: 0.0012614
inclination: 98.1132°
perigee height: 662 km
apogee height: 680 km
right ascension of ascending node: 103.7489°
argument of perigee: 197.9396°
revolutions per day: 14.66911183
mean anomaly at epoch: 162.1365°
orbit number at epoch: 91767

The dashed part of the orbit path shows where the satellite is in the earth's shadow,  

DLR